Carmi, IL

3:10 PM CDT on August 28, 2016 (GMT -0500)
Carmi Municipal

Weather History for KCUL - April, 2014

Change the Weather History Date:

Wednesday, April 2, 2014

  Actual Average (KEVV) Record (KEVV)
Temperature  
Mean Temperature 54 °F 52 °F  
Max Temperature 60 °F 63 °F 84 °F (2012)
Min Temperature 49 °F 40 °F 27 °F (2013)
Degree Days  
Heating Degree Days 10 14  
Month to date heating degree days 28  
Since 1 July heating degree days 4194  
Cooling Degree Days 0 0  
Month to date cooling degree days 0  
Year to date cooling degree days 3  
Growing Degree Days 4 (Base 50)    
Moisture  
Dew Point 50 °F    
Average Humidity 82    
Maximum Humidity 97    
Minimum Humidity 71    
Precipitation  
Precipitation 0.62 in 0.14 in 1.35 in (1897)
Month to date precipitation 0.28  
Year to date precipitation 10.79  
Snow  
Snow 0.00 in 0.00 in T in (1993)
Month to date snowfall 0.0  
Since 1 July snowfall 11.7  
Snow Depth -    
Sea Level Pressure  
Sea Level Pressure 29.99 in    
Wind  
Wind Speed 8 mph (ENE)    
Max Wind Speed 23 mph    
Max Gust Speed 24 mph    
Visibility 9 miles    
Events Rain , Thunderstorm    
T = Trace of Precipitation, MM = Missing Value Source: NWS Daily Summary

Daily Weather History Graph

Daily Weather History Graph

Search for Another Location

Airport or City:

Trip Planner

Search our weather history database for the weather conditions in past years. The results will help you decide how hot, cold, wet, or windy it might be!

Date:

Astronomy

Apr. 02, 2014 Rise Set
Actual Time 6:36 AM CDT 7:16 PM CDT
Civil Twilight 6:09 AM CDT 7:43 PM CDT
Nautical Twilight 5:38 AM CDT 8:14 PM CDT
Astronomical Twilight 5:05 AM CDT 8:46 PM CDT
Moon 8:22 AM CDT (4/2) 10:36 PM CDT (4/2)
Length of Visible Light 13h 33m
Length of Day
12h 40m
Waxing Crescent, 10% of the Moon is Illuminated
Apr 2
Waxing Crescent
Apr 7
First Quarter
Apr 15
Full
Apr 22
Last Quarter
Apr 29
New

Hourly Weather History & Observations

Time (CDT) Temp. Dew Point Humidity Pressure Visibility Wind Dir Wind Speed Gust Speed Precip Events Conditions
12:15 AM 52.7 °F 45.5 °F 76% 30.05 in 10.0 mi Calm Calm - N/A   Mostly Cloudy
12:35 AM 53.1 °F 45.5 °F 75% 30.05 in 10.0 mi NNW 3.5 mph - N/A   Overcast
1:15 AM 53.1 °F 46.4 °F 78% 30.05 in 10.0 mi NNE 3.5 mph - N/A   Overcast
1:35 AM 53.1 °F 47.8 °F 82% 30.05 in 10.0 mi Calm Calm - N/A   Overcast
1:55 AM 52.7 °F 46.9 °F 81% 30.06 in 10.0 mi North 4.6 mph - N/A   Overcast
2:15 AM 52.9 °F 46.6 °F 79% 30.06 in 10.0 mi NNE 5.8 mph - N/A   Overcast
2:35 AM 52.7 °F 46.9 °F 81% 30.05 in 10.0 mi NE 4.6 mph - N/A   Overcast
2:55 AM 52.7 °F 47.1 °F 81% 30.05 in 10.0 mi ENE 4.6 mph - N/A   Overcast
3:15 AM 52.7 °F 47.3 °F 82% 30.04 in 10.0 mi NE 6.9 mph - N/A   Overcast
3:35 AM 52.7 °F 46.2 °F 79% 30.04 in 10.0 mi NE 8.1 mph - N/A   Overcast
3:55 AM 53.2 °F 45.1 °F 74% 30.04 in 10.0 mi NE 9.2 mph - N/A   Overcast
4:15 AM 52.7 °F 44.8 °F 74% 30.04 in 10.0 mi NNE 10.4 mph - N/A   Overcast
4:35 AM 52.0 °F 45.5 °F 79% 30.03 in 10.0 mi NE 8.1 mph - N/A   Overcast
4:55 AM 51.8 °F 45.7 °F 80% 30.03 in 10.0 mi NE 8.1 mph - N/A   Overcast
5:15 AM 52.2 °F 44.6 °F 75% 30.03 in 10.0 mi ENE 11.5 mph - N/A   Overcast
5:35 AM 51.8 °F 44.6 °F 76% 30.05 in 10.0 mi NE 8.1 mph - N/A   Overcast
5:55 AM 51.6 °F 44.6 °F 77% 30.04 in 10.0 mi ENE 10.4 mph - N/A Thunderstorm Thunderstorm
6:15 AM 51.8 °F 44.6 °F 76% 30.05 in 10.0 mi ENE 8.1 mph - N/A Thunderstorm Overcast
7:35 AM 49.1 °F 46.2 °F 90% 30.09 in 7.0 mi NNE 11.5 mph - 0.01 in   Overcast
7:55 AM 49.1 °F 46.4 °F 90% 30.08 in 7.0 mi NNE 11.5 mph - 0.01 in   Overcast
8:15 AM 49.6 °F 46.6 °F 89% 30.08 in 10.0 mi NE 11.5 mph - N/A   Overcast
8:35 AM 50.0 °F 46.4 °F 87% 30.06 in 10.0 mi NE 16.1 mph - N/A   Overcast
8:55 AM 51.1 °F 46.9 °F 86% 30.05 in 10.0 mi ENE 16.1 mph - N/A   Mostly Cloudy
9:15 AM 52.9 °F 48.0 °F 84% 30.04 in 10.0 mi East 17.3 mph - N/A   Scattered Clouds
9:35 AM 53.4 °F 48.4 °F 83% 30.04 in 10.0 mi East 16.1 mph - N/A   Mostly Cloudy
9:55 AM 54.5 °F 48.4 °F 80% 30.05 in 10.0 mi East 13.8 mph 19.6 mph N/A   Mostly Cloudy
10:15 AM 55.6 °F 48.4 °F 77% 30.03 in 10.0 mi East 15.0 mph - N/A   Mostly Cloudy
10:35 AM 57.2 °F 48.7 °F 73% 30.02 in 10.0 mi East 12.7 mph - N/A   Scattered Clouds
10:55 AM 57.9 °F 48.6 °F 71% 30.02 in 10.0 mi ESE 12.7 mph - N/A   Scattered Clouds
11:35 AM 57.2 °F 50.2 °F 77% 30.03 in 7.0 mi East 5.8 mph 9.2 mph N/A Rain , Thunderstorm Light Thunderstorms and Rain
11:55 AM 56.7 °F 50.9 °F 81% 30.05 in 5.0 mi SSE 5.8 mph - 0.02 in Rain , Thunderstorm Rain
12:15 PM 55.8 °F 52.9 °F 90% 30.00 in 7.0 mi ESE 9.2 mph - 0.12 in Rain , Thunderstorm Light Thunderstorms and Rain
12:55 PM 58.3 °F 52.2 °F 80% 30.01 in 10.0 mi ESE 10.4 mph - 0.12 in   Overcast
1:15 PM 58.8 °F 52.9 °F 81% 30.00 in 10.0 mi East 5.8 mph - N/A   Overcast
1:35 PM 59.0 °F 53.4 °F 82% 30.00 in 10.0 mi NE 6.9 mph - N/A   Overcast
1:55 PM 59.0 °F 53.4 °F 82% 29.99 in 10.0 mi NE 4.6 mph - N/A   Overcast
2:35 PM 59.4 °F 54.3 °F 83% 29.99 in 10.0 mi NNE 11.5 mph - N/A Thunderstorm Overcast
2:55 PM 59.9 °F 53.8 °F 80% 29.97 in 10.0 mi NNE 12.7 mph - N/A Thunderstorm Mostly Cloudy
3:15 PM 59.5 °F 54.7 °F 84% 29.98 in 10.0 mi North 13.8 mph - N/A   Mostly Cloudy
3:35 PM 58.1 °F 53.6 °F 85% 29.97 in 10.0 mi NNE 18.4 mph - N/A   Scattered Clouds
3:55 PM 58.3 °F 53.4 °F 84% 29.96 in 10.0 mi NNE 23.0 mph - N/A   Clear
4:15 PM 58.3 °F 53.2 °F 83% 29.96 in 10.0 mi NE 19.6 mph 23.0 mph N/A Thunderstorm Clear
4:35 PM 59.2 °F 53.8 °F 82% 29.94 in 10.0 mi NE 20.7 mph - N/A Thunderstorm Scattered Clouds
4:55 PM 59.0 °F 53.2 °F 81% 29.93 in 10.0 mi ENE 18.4 mph 24.2 mph N/A Thunderstorm Mostly Cloudy
5:15 PM 59.9 °F 53.2 °F 79% 29.93 in 10.0 mi ENE 17.3 mph 23.0 mph N/A Thunderstorm Mostly Cloudy
5:35 PM 60.1 °F 53.4 °F 79% 29.92 in 10.0 mi ENE 12.7 mph - N/A   Scattered Clouds
5:55 PM 59.9 °F 53.2 °F 79% 29.92 in 10.0 mi ENE 10.4 mph - N/A Thunderstorm Thunderstorm
6:15 PM 59.9 °F 52.7 °F 77% 29.93 in 10.0 mi ENE 11.5 mph - N/A   Mostly Cloudy
6:35 PM 59.9 °F 52.9 °F 78% 29.93 in 10.0 mi ENE 10.4 mph - N/A Thunderstorm Thunderstorm
6:55 PM 59.4 °F 52.7 °F 79% 29.93 in 10.0 mi East 10.4 mph - N/A   Overcast
7:15 PM 59.2 °F 52.9 °F 80% 29.92 in 10.0 mi ESE 9.2 mph - N/A Thunderstorm Overcast
7:35 PM 58.6 °F 52.7 °F 81% 29.94 in 10.0 mi SE 4.6 mph - N/A   Overcast
7:55 PM 58.6 °F 52.7 °F 81% 29.93 in 10.0 mi East 6.9 mph - N/A Thunderstorm Overcast
8:15 PM 57.6 °F 52.7 °F 84% 29.93 in 10.0 mi East 4.6 mph - N/A   Mostly Cloudy
8:35 PM 56.5 °F 52.2 °F 85% 29.94 in 10.0 mi ESE 5.8 mph - N/A Thunderstorm Scattered Clouds
8:55 PM 57.2 °F 53.1 °F 86% 29.93 in 10.0 mi ESE 4.6 mph - N/A   Mostly Cloudy
9:15 PM 57.2 °F 52.9 °F 85% 29.92 in 10.0 mi ESE 5.8 mph - N/A   Mostly Cloudy
9:35 PM 57.6 °F 52.9 °F 84% 29.93 in 10.0 mi SE 4.6 mph - N/A   Mostly Cloudy
9:55 PM 57.2 °F 53.2 °F 87% 29.93 in 10.0 mi SE 4.6 mph - N/A Thunderstorm Overcast
10:15 PM 57.2 °F 53.8 °F 88% 29.94 in 1.8 mi SSW 3.5 mph - 0.18 in Rain , Thunderstorm Heavy Thunderstorms and Rain
10:35 PM 56.7 °F 55.4 °F 96% 29.94 in 7.0 mi ESE 4.6 mph - 0.41 in Rain , Thunderstorm Light Thunderstorms and Rain
10:55 PM 57.0 °F 55.6 °F 95% 29.93 in 7.0 mi East 8.1 mph - 0.42 in Rain , Thunderstorm Light Thunderstorms and Rain
11:15 PM 57.2 °F 55.9 °F 96% 29.93 in 5.0 mi ESE 8.1 mph - 0.03 in Rain , Thunderstorm Heavy Thunderstorms and Rain
11:35 PM 57.4 °F 56.3 °F 96% 29.92 in 5.0 mi ESE 8.1 mph - 0.05 in Rain , Thunderstorm Light Thunderstorms and Rain
11:55 PM 57.9 °F 57.0 °F 97% 29.92 in 5.0 mi SE 8.1 mph - 0.05 in Thunderstorm Overcast